Flag for Germany Weather past 2 weeks in Bornheim (Rheinland), North Rhine-Westphalia, Germany

Now
78 °F

Sunny.


Feels Like: 80 °F
Forecast: 71 / 95 °F
Wind: 2 mph from Northeast

Location: Bonn-Hangelar

Current Time: Jul 3, 2015 at 1:19:54 PM

Latest Report: Jul 3, 2015 at 12:00 PM


Visibility: 16 mi

Pressure: 30.23 "Hg

Humidity: 64%

Dew point: 65 °F

Location of Bornheim (Rheinland)Location

Historic Weather in Bornheim (Rheinland) — Graph

°F

Bornheim (Rheinland) temperature yesterday

Maximum temperature yesterday: 94 °F (at 4:00 PM)
Minimum temperature yesterday: 73 °F (at 11:00 PM)
Average temperature yesterday: 83 °F

Past Weeks' High & Low Weather Summary

 TemperatureHumidityPressure
High94 °F (Jul 2, 4:00 PM)100% (Jun 19, 7:00 AM)30.26 "Hg (Jun 19, 7:00 AM)
Low47 °F (Jun 23, 1:00 AM)32% (Jun 30, 7:00 PM)29.72 "Hg (Jun 22, 8:00 PM)
Average63 °F74%30.08 "Hg
* Reported Jun 18 12:00 Noon — Jul 3 12:00 Noon, Bornheim (Rheinland), Weather by CustomWeather, © 2015

Note: Actual official high and low records may vary slightly from our data, if they occured in-between our weather recording intervals... More about our weather records

Advertising

Bornheim (Rheinland) weather history for previous 24 hours

 ConditionsComfort  
Time TempWeatherWind HumidityBarometerVisibility
12:00 PM
Fri, Jul 3
78 °FSunny.2 mph64%30.23 "Hg16 mi
11:00 AM76 °FSunny.2 mph69%30.24 "Hg15 mi
10:00 AM73 °FSunny.1 mph74%30.25 "Hg15 mi
9:00 AM71 °FSunny.2 mph81%30.25 "Hg9 mi
8:00 AM67 °FFog.1 mph89%30.26 "Hg4 mi
7:00 AM65 °FFog.2 mph94%30.25 "Hg4 mi
6:00 AM65 °FFog.3 mph93%30.24 "Hg4 mi
5:00 AM65 °FFog.2 mph93%30.24 "Hg4 mi
4:00 AM65 °FOvercast.2 mph92%30.23 "Hg6 mi
3:00 AM68 °FOvercast.2 mph86%30.22 "Hg9 mi
2:00 AM68 °FPassing clouds.3 mph84%30.21 "Hg8 mi
1:00 AM71 °FOvercast.5 mph81%30.18 "Hg7 mi
12:00 AM70 °FPassing clouds.2 mph84%30.16 "Hg6 mi
11:00 PM
Thu, Jul 2
73 °FOvercast.3 mph78%30.14 "Hg8 mi
10:00 PM76 °FClear.3 mph73%30.10 "Hg9 mi
9:00 PM79 °FOvercast.5 mph69%30.09 "Hg7 mi
8:00 PM81 °FPartly sunny.3 mph67%30.06 "Hg7 mi
7:00 PM85 °FOvercast.7 mph62%30.03 "Hg11 mi
6:00 PM90 °FOvercast.6 mph43%30.01 "Hg22 mi
5:00 PM93 °FOvercast.5 mph37%30.00 "Hg19 mi
4:00 PM94 °FOvercast.7 mph32%30.00 "Hg14 mi
3:00 PM93 °FSunny.6 mph39%29.99 "Hg16 mi
2:00 PM93 °FPassing clouds.3 mph40%30.01 "Hg22 mi
1:00 PM91 °FSunny.2 mph46%30.01 "Hg19 mi
Weather by CustomWeather, © 2015

See weather overviewHow to use our weather pages